Location: StarHub Observatory
(35.2598°N, 77.5855°W)
Time: 11:34:43
(UTC-05:00)

N. Korean satellite - Visible Passes

Search period start: 03 December 2021 00:00
Search period end: 13 December 2021 00:00
Orbit: 447 x 495 km, 97.3° (Epoch: 02 December)

Date Brightness Start Highest point End Pass type
(mag) Time Alt. Az. Time Alt. Az. Time Alt. Az.
03 Dec 7.5 05:05:16 10° NNE 05:08:31 45° E 05:11:46 10° S visible
04 Dec 9.3 04:37:34 10° NE 04:39:56 18° E 04:42:16 10° SE visible
04 Dec 7.8 06:10:36 10° NNW 06:13:00 18° WNW 06:15:23 10° WSW visible
05 Dec 6.6 05:41:22 10° N 05:44:38 46° WNW 05:47:51 10° SSW visible
05 Dec 10.1 17:47:29 10° WSW 17:48:40 11° W 17:49:52 10° WNW visible
06 Dec 6.9 05:12:48 10° NNE 05:16:07 60° E 05:19:28 10° S visible
07 Dec 8.9 04:44:49 10° NE 04:47:33 22° E 04:50:15 10° SSE visible
07 Dec 8.1 06:18:33 10° NW 06:20:30 15° WNW 06:22:27 10° WSW visible
08 Dec 6.9 05:49:01 10° N 05:52:07 35° WNW 05:55:15 10° SW visible
09 Dec 6.4 05:20:15 10° NNE 05:23:39 81° ESE 05:27:02 10° S visible
09 Dec 9.5 17:24:48 10° SSW 17:27:33 21° W 17:30:16 10° NW visible
10 Dec 8.4 04:52:03 10° NE 04:55:03 28° E 04:58:02 10° SSE visible
10 Dec 8.3 06:26:38 10° NW 06:27:55 12° WNW 06:29:12 10° W visible
11 Dec 9.8 04:25:03 10° ENE 04:26:20 12° E 04:27:36 10° ESE visible
11 Dec 7.3 05:57:59 19° NNW 05:59:33 28° WNW 06:02:29 10° SW visible
12 Dec 6.2 05:29:37 32° N 05:31:03 77° WNW 05:34:27 10° SSW visible
12 Dec 9.6 17:32:41 10° SW 17:34:59 17° W 17:37:18 10° NW visible
